2018-083B (43663 NORAD) Tracking and Keplerian Element Data

This shows tracking and keplerian element data for the satellite.

Feedback or suggestion? Click here.




ElementValue
Catalog43663
Name2018-083B
Epoch Orbit218
Epoch Day316.48480003
Epoch Year2018
RAAN337.2609
Inclination97.5309
Eccentricity0.0009966
Argument of Perigee212.0085
Mean Anonmoly289.2412
Mean Motion15.16421109
Decay Rate8.81E-06
L11 43663U 18083B 18316.48480003 .00000881 00000-0 48769-4 0 9993
L22 43663 97.5309 337.2609 0009966 212.0085 289.2412 15.16421109 2184

Live tracking and technical data element details for 2018-083B (NORAD 43663). 2018-083B can be tracked NOW for your location showing map with azimuth and elevation plus other details from your city location.

Track the satellite on the map from your city or location and see movement details for azimuth, elevation, latitude, longitude, range, height, and movement on the map or in text.







IsCatalogInMostPopularTable: catalog: 43663, numindb: 9
Update: records affected: 1



GetName: 43663 2018-083B

Hit Count: updated at: Tue, 13 Nov 2018 06:25:10 GMT